SCP
0 0 0 0 0 0 0 0 0 0 0 0 0 0 0 0 0 0 0 0 0 0 0 0 0 0 0 0 0 0 0 0 0 0 0 0 0 0 0 0 0 0 0 0 0 0 0 0 0
0 0 0 0 0 0 0 0 0 0 0 0 0 0 0 0 0 0 0 0 0 0 0 0 0 0 0 0 0 0 0 0 0 0 0 0 0 0 0 0 0 0 0 0 0 0 0 0 0
0 0 0 0 0 0 0 0 0 0 0 0 0 0 0 0 0 0 0 0 0 0 0 0 0 0 0 0 0 0 0 0 0 0 0 0 0 0 0 0 0 0 0 0 0 0 0 0 0
0 0 0 0 0 0 0 0 0 0 0 0 0 0 0 0 0 0 0 0 0 0 0 0 0 0 0 0 0 0 0 0 0 0 0 0 0 0 0 0 0 0 0 0 0 0 0 0 0
0 0 0 0 0 0 0 0 0 0 0 0 0 0 0 0 0 0 0 0 0 0 0 0 0 0 0 0 0 0 0 0 0 0 0 0 0 0 0 0 0 0 0 0 0 0 0 0 0
0 0 0 0 0 0 0 0 0 0 0 0 0 0 0 0 0 0 0 0 0 0 0 0 0 0 0 0 0 0 0 0 0 0 0 0 0 0 0 0 0 0 0 0 0 0 0 0 0
0 0 0 0 0 0 0 0 0 0 0 0 0 0 0 0 0 0 0 0 0 0 0 0 0 0 0 0 0 0 0 0 0 0 0 0 0 0 0 0 0 0 0 0 0 0 0 0 0
0 0 0 0 0 0 0 0 0 0 0 0 0 0 0 0 0 0 0 0 0 0 0 0 0 0 0 0 0 0 0 0 0 0 0 0 0 0 0 0 0 0 0 0 0 0 0 0 0
0 0 0 0 0 0 0 0 0 0 0 0 0 0 0 0 0 0 0 0 0 0 0 0 0 0 0 0 0 0 0 0 0 0 0 0 0 0 0 0 0 0 0 0 0 0 0 0 0
0 0 0 0 0 0 0 0 0 0 0 0 0 0 0 0 0 0 0 0 0 0 0 0 0 0 0 0 0 0 0 0 0 0 0 0 0 0 0 0 0 0 0 0 0 0 0 0 0
0 0 0 0 0 0 0 0 0 0 0 0 0 0 0 0 0 0 0 0 0 0 0 0 0 0 0 0 0 0 0 0 0 0 0 0 0 0 0 0 0 0 0 0 0 0 0 0 0
0 0 0 0 0 0 0 0 0 0 0 0 0 0 0 0 0 0 0 0 0 0 0 0 0 0 0 0 0 0 0 0 0 0 0 0 0 0 0 0 0 0 0 0 0 0 0 0 0
0 0 0 0 0 0 0 0 0 0 0 0 0 0 0 0 0 0 0 0 0 0 0 0 0 0 0 0 0 0 0 0 0 0 0 0 0 0 0 0 0 0 0 0 0 0 0 0 0
0 0 0 0 0 0 0 0 0 0 0 0 0 0 0 0 0 0 0 0 0 0 0 0 0 0 0 0 0 0 0 0 0 0 0 0 0 0 0 0 0 0 0 0 0 0 0 0 0
0 0 0 0 0 0 0 0 0 0 0 0 0 0 0 0 0 0 0 0 0 0 0 0 0 0 0 0 0 0 0 0 0 0 0 0 0 0 0 0 0 0 0 0 0 0 0 0 0
0 0 0 0 0 0 0 0 0 0 0 0 0 0 0 0 0 0 0 0 0 0 0 0 0 0 0 0 0 0 0 0 0 0 0 0 0 0 0 0 0 0 0 0 0 0 0 0 0
0 0 0 0 0 0 0 0 0 0 0 0 0 0 0 0 0 0 0 0 0 0 0 0 0 0 0 0 0 0 0 0 0 0 0 0 0 0 0 0 0 0 0 0 0 0 0 0 0
0 0 0 0 0 0 0 0 0 0 0 0 0 0 0 0 0 0 0 0 0 0 0 0 0 0 0 0 0 0 0 0 0 0 0 0 0 0 0 0 0 0 0 0 0 0 0 0 0
0 0 0 0 0 0 0 0 0 0 0 0 0 0 0 0 0 0 0 0 0 0 0 0 0 0 0 0 0 0 0 0 0 0 0 0 0 0 0 0 0 0 0 0 0 0 0 0 0
0 0 0 0 0 0 0 0 0 0 0 0 0 0 0 0 0 0 0 0 0 0 0 0 0 0 0 0 0 0 0 0 0 0 0 0 0 0 0 0 0 0 0 0 0 0 0 0 0
0 0 0 0 0 0 0 0 0 0 0 0 0 0 0 0 0 0 0 0 0 0 0 0 0 0 0 0 0 0 0 0 0 0 0 0 0 0 0 0 0 0 0 0 0 0 0 0 0
0 0 0 0 0 0 0 0 0 0 0 0 0 0 0 0 0 0 0 0 0 0 0 0 0 0 0 0 0 0 0 0 0 0 0 0 0 0 0 0 0 0 0 0 0 0 0 0 0
0 0 0 0 0 0 0 0 0 0 0 0 0 0 0 0 0 0 0 0 0 0 0 0 0 0 0 0 0 0 0 0 0 0 0 0 0 0 0 0 0 0 0 0 0 0 0 0 0
0 0 0 0 0 0 0 0 0 0 0 0 0 0 0 0 0 0 0 0 0 0 0 0 0 0 0 0 0 0 0 0 0 0 0 0 0 0 0 0 0 0 0 0 0 0 0 0 0
0 0 0 0 0 0 0 0 0 0 0 0 0 0 0 0 0 0 0 0 0 0 0 0 0 0 0 -0 0 0 0 0 0 0 0 0 0 0 0 0 0 0 0 0 0 0 0 0 0
0 0 0 0 0 0 0 0 0 0 0 0 0 0 0 0 0 0 0 0 0 0 0 0 0 0 0 -0 -0 0 0 0 0 0 0 0 0 0 0 0 0 0 0 0 0 0 0 0 0
0 0 0 0 0 0 0 0 0 0 0 0 0 0 0 0 0 0 0 0 0 0 0 0 0 0 0 0 0 0 0 0 0 0 0 0 0 0 0 0 0 0 0 0 0 0 0 0 0
0 0 0 0 0 0 0 0 0 0 0 0 0 0 0 0 0 0 0 0 0 0 0 0 0 0 0 0 0 0 0 0 0 0 0 0 0 0 0 0 0 0 0 0 0 0 0 0 0
0 0 0 0 0 0 0 0 0 0 0 0 0 0 0 0 0 0 0 0 0 0 0 0 0 0 0 0 0 0 0 0 0 0 0 0 0 0 0 0 0 0 0 0 0 0 0 0 0
0 0 0 0 0 0 0 0 0 0 0 0 0 0 0 0 0 0 0 0 0 0 0 0 0 0 0 0 0 0 0 0 0 0 0 0 0 0 0 0 0 0 0 0 0 0 0 0 0
Wind_Speed
7 4 2 4 5 3 3 4 2 1 1 1 1 4 5 4 2 3 1 4 8 9 8 9 10 11 11 11 10 10 10 9 9 9 10 10 10 10 10 9 9 9 9 9 10 10 9 9 9
3 2 4 4 4 2 4 4 3 4 3 2 2 4 4 2 1 4 2 4 9 9 7 8 10 11 11 11 10 10 10 9 9 9 9 9 10 10 10 9 9 9 9 9 9 9 9 9 8
3 1 4 3 3 5 5 3 4 2 1 2 2 3 3 2 2 3 3 7 8 7 7 7 10 11 11 11 10 10 9 10 9 9 9 9 10 10 9 9 9 9 9 9 8 8 8 8 8
2 4 4 3 4 5 4 3 2 1 1 1 3 4 2 1 1 3 6 8 8 6 6 7 10 11 11 11 10 10 10 10 10 9 9 9 10 9 9 9 9 9 8 8 8 8 8 8 7
3 4 2 1 5 4 4 3 2 1 1 0 3 4 1 2 3 6 7 8 8 6 5 7 9 10 10 11 11 10 10 10 9 9 9 9 9 9 8 8 8 8 8 8 8 8 8 7 7
4 3 3 4 5 4 3 3 1 1 1 0 3 4 1 1 4 5 6 7 7 7 6 6 8 8 9 10 10 10 10 9 9 9 9 8 9 8 8 8 8 8 8 8 8 7 7 7 7
4 3 3 4 3 3 3 1 1 2 1 1 2 4 2 1 2 4 6 6 6 6 5 4 5 6 7 7 8 9 9 9 9 8 8 7 7 8 8 7 8 8 8 8 7 7 6 6 6
4 3 2 2 3 4 2 0 0 2 2 1 2 5 4 4 3 5 6 6 6 5 5 4 4 4 4 4 6 7 8 8 8 8 8 7 7 6 7 6 7 8 8 8 7 6 6 5 6
3 3 3 3 3 3 1 0 1 0 2 2 2 1 2 6 6 7 6 4 4 4 4 4 4 4 4 4 5 6 7 7 7 6 7 6 3 3 4 5 6 6 7 6 6 5 5 4 4
3 4 6 3 2 1 1 0 1 1 1 1 2 3 4 6 7 7 6 6 5 4 4 3 4 4 4 4 3 3 3 4 3 3 4 3 3 2 3 5 5 5 5 5 5 4 4 3 2
4 6 4 2 1 1 1 2 1 2 2 4 4 4 5 5 5 5 5 5 5 5 4 4 4 4 4 3 3 2 2 2 3 3 3 3 3 2 2 2 2 3 3 2 3 2 1 1 1
3 3 3 2 1 1 1 1 2 2 5 3 4 6 6 5 5 5 5 4 3 3 3 3 4 4 4 3 3 3 2 2 2 3 4 3 2 2 2 2 2 2 1 2 1 1 1 1 1
3 2 2 2 2 2 2 2 2 5 5 2 3 5 5 5 4 3 2 3 2 2 2 3 3 4 4 4 3 3 3 3 3 3 3 4 4 3 3 2 2 2 2 2 2 1 1 1 0
2 1 3 3 4 3 3 4 2 7 3 2 3 4 4 5 4 2 2 2 3 3 2 2 3 4 4 4 3 3 3 3 3 3 3 4 4 4 3 3 3 2 2 2 2 2 1 1 1
0 2 4 4 4 3 2 5 6 7 2 2 2 3 3 3 3 3 4 4 3 3 3 2 3 3 4 4 4 3 3 3 3 3 3 3 4 4 4 3 3 2 2 2 2 1 1 1 0
1 0 3 4 3 3 4 7 6 3 3 3 3 3 3 3 2 3 3 2 2 2 3 3 2 2 3 3 3 3 3 3 3 3 3 3 3 4 4 3 3 3 2 2 2 2 1 1 1
0 2 4 4 3 2 4 7 6 1 2 4 4 3 3 3 3 3 2 2 2 2 3 3 2 3 2 2 2 2 3 3 3 2 2 3 3 4 3 3 2 3 2 2 2 2 2 1 1
4 4 3 4 2 2 4 8 8 4 3 5 5 4 4 4 5 3 1 1 1 1 2 2 2 2 2 1 2 1 2 2 2 2 3 3 3 3 3 3 2 3 2 2 2 2 2 1 1
2 2 5 4 1 1 6 10 11 6 3 5 6 5 5 5 4 1 1 1 1 1 1 1 2 2 2 2 2 2 2 2 2 2 3 3 3 3 3 3 3 3 3 3 3 2 2 1 1
2 3 4 3 1 1 4 9 9 6 5 6 6 6 5 3 2 2 0 1 1 1 0 1 2 3 3 2 2 2 2 1 2 1 2 3 3 3 3 4 3 3 3 3 3 2 2 1 2
5 5 4 4 4 2 3 8 5 4 3 3 3 3 3 3 3 2 0 0 0 0 0 1 1 2 2 2 2 2 2 1 1 1 2 2 3 4 4 4 4 3 4 4 4 4 3 3 2
6 4 4 3 1 3 1 6 6 3 3 3 2 1 1 1 1 0 0 0 0 1 0 0 1 1 2 3 3 3 3 2 2 1 1 1 2 3 3 4 4 4 3 3 4 4 3 4 3
5 2 2 2 2 3 2 4 8 2 4 5 3 2 1 1 0 0 1 0 1 1 1 1 1 1 2 2 3 3 2 1 0 0 0 1 1 2 2 3 3 3 3 3 4 4 3 3 3
2 2 2 2 2 4 5 5 7 3 4 3 2 1 1 1 1 2 2 3 3 3 3 2 2 2 1 1 2 2 2 2 1 1 1 1 1 1 1 2 3 3 3 3 4 4 4 4 3
2 3 2 3 1 6 2 4 8 4 3 3 3 2 1 1 2 3 3 3 3 3 3 2 2 2 1 1 1 1 2 2 3 2 2 2 1 1 2 2 2 2 3 3 3 3 4 4 4
3 5 5 4 5 5 2 6 6 3 2 1 0 1 2 2 2 2 2 2 2 2 3 2 2 2 1 1 1 0 0 1 1 2 2 2 2 2 2 2 2 3 3 2 2 2 3 3 3
4 4 3 3 0 3 5 5 5 1 2 2 2 3 2 2 2 2 2 2 2 2 2 1 1 1 1 1 1 1 1 0 1 1 1 1 1 1 1 2 2 3 3 3 3 2 3 2 3
2 3 3 4 3 5 5 4 5 3 2 1 0 1 0 1 2 2 2 2 2 2 2 2 2 1 2 2 1 1 1 1 1 1 1 1 1 1 1 1 2 2 3 3 3 2 2 3 3
3 2 3 3 4 5 4 6 4 4 3 3 2 2 1 0 1 1 2 2 2 3 3 3 3 2 2 2 2 2 2 2 2 1 1 1 1 1 1 1 2 2 2 3 3 3 3 3 3
4 5 5 5 5 4 4 7 2 1 1 2 2 2 1 1 1 1 1 2 3 3 3 3 3 3 2 2 2 2 2 2 2 2 2 2 1 1 1 1 1 1 1 2 3 4 4 4 4
Wind_Direction
334 341 57 59 60 64 230 244 225 245 217 208 128 108 113 116 148 169 125 124 132 147 158 155 154 150 145 141 139 136 134 130 126 122 120 120 116 113 111 107 106 104 103 103 101 100 97 95 95
327 356 55 64 101 173 250 241 219 225 204 164 98 93 90 82 79 115 123 141 141 148 153 153 152 149 147 142 140 139 137 135 132 128 124 123 119 115 111 109 107 105 103 103 104 100 96 96 96
319 59 85 88 152 194 219 229 207 237 228 144 104 75 102 129 138 153 163 145 135 141 146 150 151 149 148 144 142 141 140 138 135 131 127 123 119 116 114 111 108 105 102 102 105 102 98 94 90
50 51 63 98 222 228 215 232 221 215 330 85 120 88 68 38 166 153 137 135 128 132 140 147 148 148 146 145 146 145 141 139 135 131 126 122 119 117 116 115 111 107 103 100 101 99 96 92 88
63 82 85 226 236 246 241 240 226 224 230 37 119 121 95 4 76 115 127 130 130 130 134 143 145 145 145 145 144 143 141 140 136 133 128 124 121 118 120 121 116 113 110 105 102 100 94 88 83
64 80 131 224 236 255 265 253 199 219 220 34 106 122 151 103 103 121 127 126 129 131 132 139 139 139 143 145 146 144 142 140 138 135 131 127 126 125 126 125 122 119 115 111 108 104 99 90 81
112 122 190 216 224 250 252 260 177 184 221 241 138 130 156 170 142 122 119 118 119 123 126 133 138 138 136 137 142 142 140 136 134 132 128 124 124 127 124 123 125 122 120 116 112 106 100 93 84
129 117 205 222 217 239 257 246 222 155 211 346 107 148 187 198 151 114 109 112 116 120 123 128 128 127 128 133 134 135 136 133 132 129 123 122 124 124 124 120 125 125 123 122 119 113 103 95 88
101 105 211 216 209 233 290 305 330 7 98 40 37 129 173 138 130 116 109 105 115 123 126 128 129 127 129 131 133 131 134 135 134 132 130 124 114 116 122 123 129 130 130 131 126 118 105 89 81
117 180 216 216 197 216 294 279 275 35 56 92 50 38 98 125 136 139 143 152 157 161 158 144 140 138 136 138 128 130 133 131 129 130 129 120 119 127 126 128 131 128 129 131 124 111 94 77 65
172 199 213 243 236 205 278 312 319 158 237 204 180 171 148 141 149 159 165 166 173 174 167 161 156 151 146 140 139 136 138 136 137 140 135 126 120 120 116 119 122 119 117 109 101 81 65 81 92
189 227 216 238 276 296 251 287 315 231 226 204 174 159 153 162 176 181 177 168 160 159 174 174 164 158 157 151 152 150 152 153 158 161 150 141 138 138 142 142 145 142 139 136 127 127 116 117 119
214 244 258 258 278 267 263 251 258 252 241 193 127 131 153 168 184 189 175 165 158 175 183 175 167 166 163 157 162 162 167 167 167 167 164 155 155 159 160 158 155 158 154 155 156 155 154 148 154
223 261 283 264 253 251 240 262 230 250 224 164 146 162 178 180 188 189 198 203 197 192 198 194 177 172 165 166 172 170 170 166 161 168 171 165 161 162 162 162 164 167 170 169 166 170 167 184 176
47 323 305 257 222 228 193 279 231 232 171 182 197 199 203 208 192 197 204 206 207 206 199 197 188 171 171 174 178 170 170 163 164 170 172 166 161 165 167 167 172 179 173 163 154 146 140 151 145
20 355 283 267 194 194 163 258 262 227 169 214 228 224 220 227 218 224 214 202 197 191 194 202 188 179 184 176 178 170 165 160 164 169 172 169 168 167 169 172 181 178 167 163 162 162 156 169 165
311 237 243 276 204 167 187 251 276 263 182 226 241 237 233 246 259 250 234 205 186 186 190 196 198 182 185 182 168 158 158 161 164 165 171 176 173 171 169 175 180 171 166 172 175 170 164 176 182
216 223 240 246 256 155 229 258 278 276 220 242 248 246 242 239 248 240 223 209 167 157 170 191 202 179 162 156 129 129 140 157 163 170 180 175 178 175 167 170 175 166 168 175 173 172 162 166 174
199 231 257 260 264 218 242 261 272 271 244 248 251 246 241 245 256 262 211 166 105 83 107 169 175 164 150 148 156 167 188 179 181 186 184 177 177 176 171 172 175 175 178 187 178 168 163 165 135
238 260 270 292 316 235 267 274 269 259 240 231 237 241 240 254 297 313 346 86 120 142 155 158 175 170 173 174 170 173 170 181 182 176 183 182 181 178 182 176 183 186 181 179 175 164 162 180 161
232 222 239 261 328 303 309 297 271 263 245 247 240 236 229 222 238 258 261 173 85 92 204 202 190 170 167 144 114 95 86 73 94 200 205 200 188 184 184 183 182 188 185 191 189 181 174 187 202
246 222 223 244 279 281 260 289 283 258 286 273 263 259 247 243 240 232 164 58 304 282 301 10 145 138 138 137 138 145 163 192 227 220 227 206 189 190 189 184 186 189 192 195 196 192 191 178 194
226 221 203 224 220 274 237 236 281 290 279 277 270 257 260 269 187 127 89 95 34 25 27 39 68 91 116 138 155 162 171 197 186 146 164 233 200 189 190 186 188 191 198 200 197 192 192 193 191
172 66 38 45 88 262 223 201 275 242 241 273 288 285 279 0 50 59 50 51 40 30 31 40 65 57 70 115 142 163 176 167 152 184 195 224 250 225 211 192 192 196 200 204 204 200 193 197 193
119 109 23 351 327 250 223 205 253 255 252 247 254 273 338 56 71 64 59 54 45 32 28 35 67 59 60 86 110 178 190 184 192 200 207 212 224 246 238 214 205 206 210 206 199 197 199 196 192
191 164 172 206 231 276 283 232 255 276 315 327 59 96 64 60 66 69 71 68 53 36 30 38 54 47 54 75 55 32 144 197 223 220 211 214 223 230 229 220 214 209 205 202 199 196 199 193 200
167 205 192 155 257 278 263 268 295 286 8 33 68 78 67 56 60 65 58 50 39 30 18 26 52 44 44 53 63 53 47 37 295 277 238 240 253 236 221 223 218 212 202 198 194 198 198 188 195
179 163 129 153 186 246 266 252 242 257 267 286 106 110 56 36 39 40 43 37 26 17 6 18 31 31 28 36 37 47 24 13 6 18 342 315 296 303 245 239 231 215 204 199 194 194 194 189 201
165 181 184 176 190 194 245 257 229 219 213 205 223 206 175 76 29 29 24 20 24 21 17 17 12 16 23 25 28 30 20 20 27 24 2 350 347 344 316 278 250 233 216 207 198 199 190 196 203
189 195 171 183 228 218 232 259 286 241 232 185 206 195 158 132 109 65 45 34 29 23 13 10 7 9 3 9 25 24 14 19 21 8 354 356 356 343 330 319 301 281 250 220 205 204 198 197 200